Regional Weather Roundup
Issued by NWS

Home | Current Version | Previous Version | Graphics & Text | Print | Product List | Glossary On
Versions: 1 2 3 4 5 6 7 8 9 10 11 12 13 14 15 16 17 18 19 20 21 22 23 24 25 26 27 28 29 30 31 32 33 34 35 36 37 38 39 40 41 42 43 44 45 46 47 48 49 50
344
ASUS43 KOAX 202110
RWRNE

WEATHER ROUNDUP FOR NEBRASKA
NATIONAL WEATHER SERVICE OMAHA NE
400 PM CDT WED SEP 20 2017

NOTES: SATELLITE DATA IS BEING USED TO AUGMENT CLOUD COVER ABOVE
       12000 FEET.
       "FAIR" INDICATES FEW OR NO CLOUDS BELOW 12,000 FEET WITH NO
       SIGNIFICANT WEATHER AND/OR OBSTRUCTIONS TO VISIBILITY.


NEZ001>004-019>022-054>056-202200-
NEBRASKA PANHANDLE

CITY           SKY/WX    TMP DP  RH WIND       PRES   REMARKS
GORDON         FAIR      74  30  19 SW17G28   29.83F
KIMBALL        SUNNY     73  33  23 S17G26    29.90F
$$

NEZ057>060-069>072-079>082-202200-
SOUTHWEST NEBRASKA

CITY           SKY/WX    TMP DP  RH WIND       PRES   REMARKS
LEXINGTON      SUNNY     77  33  20 CALM      29.88F
OGALLALA       SUNNY     77  27  15 SW6       29.88F
$$

NEZ005>010-023>029-035>040-094-202200-
NORTH CENTRAL NEBRASKA

CITY           SKY/WX    TMP DP  RH WIND       PRES   REMARKS
AINSWORTH      SUNNY     73  33  22 SW6G16    29.85F
O`NEILL        SUNNY     74  42  30 SW6       29.87F
THEDFORD       SUNNY     75  33  21 CALM      29.87F
$$

NEZ041-046>049-061>064-073>077-083>087-202200-
SOUTH CENTRAL NEBRASKA

CITY           SKY/WX    TMP DP  RH WIND       PRES   REMARKS
AURORA         SUNNY     77  38  25 CALM      29.88S
HEBRON         SUNNY     83  48  28 N9        29.84S
HOLDREGE       SUNNY     77  36  22 E5        29.89F
KEARNEY        SUNNY     77  38  24 N6        29.89F
YORK           SUNNY     77  41  27 NE6       29.88R
$$

NEZ011>018-030>034-042>045-202200-
NORTHEAST NEBRASKA

CITY           SKY/WX    TMP DP  RH WIND       PRES   REMARKS
NORFOLK        SUNNY     75  40  28 VRB3      29.85F
ALBION         SUNNY     76  46  34 CALM      29.87F
BLAIR          SUNNY     77  53  43 N13       29.85S
COLUMBUS       SUNNY     78  42  27 VRB3      29.87F
FREMONT        SUNNY     77  48  35 N7        29.86F
WAYNE          SUNNY     74  43  32 CALM      29.86F
$$

NEZ050>053-065>068-078-088>093-202200-
SOUTHEAST NEBRASKA

CITY           SKY/WX    TMP DP  RH WIND       PRES   REMARKS
LINCOLN        SUNNY     81  51  35 N12       29.85S
BEATRICE       SUNNY     83  56  38 NE10      29.83S
FALLS CITY     PTSUNNY   84  64  50 N10       29.79S
NEBRASKA CITY  SUNNY     81  59  48 N8G16     29.83R
PLATTSMOUTH    SUNNY     80  57  45 N5        29.84S
$$

NEZ044-045-051>053-067-202200-
OMAHA AREA

CITY           SKY/WX    TMP DP  RH WIND       PRES   REMARKS
BLAIR          SUNNY     77  53  43 N13       29.85S
FREMONT        SUNNY     77  48  35 N7        29.86F
MILLARD        SUNNY     81  55  40 N6        29.84S
OFFUTT AFB     SUNNY     80  55  42 N9        29.83R
PLATTSMOUTH    SUNNY     80  57  45 N5        29.84S
WAHOO          FAIR      79  48  34 N9        29.85S
$$




USA.gov is the U.S. government's official web portal to all federal, state and local government web resources and services.